Regional Weather Roundup
Issued by NWS

Home | Current Version | Previous Version | Text Only | Print | Product List | Glossary Off
Versions: 1 2 3 4 5 6 7 8 9 10 11 12 13 14 15 16 17 18 19 20 21 22 23 24 25 26 27 28 29 30 31 32 33 34 35 36 37 38 39 40 41 42 43 44 45 46 47 48 49 50

000
ASUS43 KOAX 040810
RWRNE

WEATHER ROUNDUP FOR NEBRASKA
NATIONAL WEATHER SERVICE OMAHA NE
200 AM CST WED MAR 04 2015

NOTES: SATELLITE DATA IS BEING USED TO AUGMENT CLOUD COVER ABOVE
       12000 FEET.
       "FAIR" INDICATES FEW OR NO CLOUDS BELOW 12,000 FEET WITH NO
       SIGNIFICANT WEATHER AND/OR OBSTRUCTIONS TO VISIBILITY.

  * THESE STATIONS DO NOT REPORT WEATHER SUCH AS RAIN...SNOW OR FOG.

NEZ001>004-019>022-054>056-040900-
NEBRASKA PANHANDLE

CITY           SKY/WX    TMP DP  RH WIND       PRES   REMARKS
SCOTTSBLUFF    CLOUDY    10   5  80 W7        30.09R WCI  -1
ALLIANCE       PTCLDY     8   1  73 NW12      30.05S WCI  -7
CHADRON        PTCLDY     2  -5  72 SW10      30.12R WCI -14
KIMBALL        LGT SNOW  12   9  85 N7        30.00R WCI   2
SIDNEY         LGT SNOW  14  10  84 N9        30.04R FOG     WCI   2
$$

NEZ057>060-069>072-079>082-040900-
SOUTHWEST NEBRASKA

CITY           SKY/WX    TMP DP  RH WIND       PRES   REMARKS
NORTH PLATTE   CLOUDY    16  11  80 N7        30.12R WCI   6
IMPERIAL       LGT SNOW  16  12  84 N5        30.09R FOG     WCI   9
LEXINGTON      CLOUDY    15  11  85 N6        30.13S WCI   6
MCCOOK         LGT SNOW  19  15  84 N6        30.13R FOG     WCI  11
OGALLALA       CLOUDY    17  13  86 N12       30.09R FOG     WCI   4
$$

NEZ005>010-023>029-035>040-094-040900-
NORTH CENTRAL NEBRASKA

CITY           SKY/WX    TMP DP  RH WIND       PRES   REMARKS
VALENTINE      CLEAR      7  -1  70 W7        30.11F WCI  -5
AINSWORTH      PTCLDY    11   2  67 W5        30.11S WCI   3
BROKEN BOW     CLOUDY    15  10  80 NW8       30.13R WCI   4
O`NEILL        PTCLDY    13   4  66 W6        30.14S WCI   4
ORD            MOCLDY    16   4  59 NW7       30.14R WCI   6
THEDFORD       CLOUDY    15  10  79 NW5       30.11S WCI   8
$$

NEZ041-046>049-061>064-073>077-083>087-040900-
SOUTH CENTRAL NEBRASKA

CITY           SKY/WX    TMP DP  RH WIND       PRES   REMARKS
GRAND ISLAND   LGT SNOW  17  13  84 NW6       30.16F FOG     WCI   9
AURORA         LGT SNOW  17  14  87 NW9       30.16S WCI   6
HASTINGS       LGT SNOW  17  13  84 N10       30.14S FOG     WCI   5
HEBRON         LGT SNOW  19  14  81 N7        30.19R WCI   9
HOLDREGE       LGT SNOW  17  14  89 N7        30.13R WCI   8
KEARNEY *      CLOUDY    18  12  79 N5        30.14S WCI  11
YORK           LGT SNOW  18  16  93 NW9       30.17R WCI   6
$$

NEZ011>018-030>034-042>045-040900-
NORTHEAST NEBRASKA

CITY           SKY/WX    TMP DP  RH WIND       PRES   REMARKS
NORFOLK        CLOUDY    18   6  59 NW7       30.15S WCI   9
ALBION         CLOUDY    18   4  53 NW8       30.15S WCI   8
BLAIR          LGT SNOW  18  10  72 N8        30.17R WCI   7
COLUMBUS *     CLOUDY    18   7  62 W7        30.18R WCI   8
FREMONT        CLOUDY    19   9  65 N6        30.19R WCI  10
TEKAMAH        CLOUDY    19   5  54 N12       30.19R WCI   7
WAYNE          CLOUDY    15   6  67 NW3       30.18S
$$

NEZ050>053-065>068-078-088>093-040900-
SOUTHEAST NEBRASKA

CITY           SKY/WX    TMP DP  RH WIND       PRES   REMARKS
LINCOLN        LGT SNOW  18  14  84 N8        30.20S FOG     WCI   8
OMAHA EPPLEY   LGT SNOW  17   9  70 N15       30.20R WCI   2
BEATRICE       LGT SNOW  18  14  86 N10G17    30.18R WCI   6
FALLS CITY     CLOUDY    20   7  57 N12       30.18R WCI   8
NEBRASKA CITY  FLURRIES  19   3  49 N18       30.18R WCI   4
PLATTSMOUTH    LGT SNOW  17  11  78 N7        30.18R WCI   7
$$

NEZ044-045-051>053-067-040900-
OMAHA AREA

CITY           SKY/WX    TMP DP  RH WIND       PRES   REMARKS
OMAHA EPPLEY   LGT SNOW  17   9  70 N15       30.20R WCI   2
BLAIR          LGT SNOW  18  10  72 N8        30.17R WCI   7
FREMONT        CLOUDY    19   9  65 N6        30.19R WCI  10
MILLARD        LGT SNOW  18  12  77 NW3       30.20R
OFFUTT AFB     LGT SNOW  17  11  78 N10       30.19R WCI   5
PLATTSMOUTH    LGT SNOW  17  11  78 N7        30.18R WCI   7
WAHOO          LGT SNOW  17  12  80 N9        30.19R WCI   6
$$



USA.gov is the U.S. government's official web portal to all federal, state and local government web resources and services.